Regional Weather Roundup
Issued by NWS State College, PA

Home | Current Version | Previous Version | Text Only | Print | Product List | Glossary Off
Versions: 1 2 3 4 5 6 7 8 9 10 11 12 13 14 15 16 17 18 19 20 21 22 23 24 25 26 27 28 29 30 31 32 33 34 35 36 37 38 39 40 41 42 43 44 45 46 47 48 49 50

000
ASUS41 KCTP 241603
RWRCTP
REGIONAL WEATHER ROUNDUP
NATIONAL WEATHER SERVICE STATE COLLEGE PA
1200 PM EDT SUN SEP 24 2017

Note: "fair" indicates few or no clouds below 12,000 feet with no
significant weather and/or obstructions to visibility.

* = STATION THAT DOES NOT REPORT PRECIPITATION /E.G. RAIN...SNOW...ETC/
    THUNDER OR FOG.

PAZ002>004-007>009-013>016-020>023-029>032-241700-
WESTERN PENNSYLVANIA

CITY           SKY/WX    TMP DP  RH WIND       PRES   REMARKS
ERIE           SUNNY     82  63  52 NW3       30.18F
MEADVILLE      SUNNY     84  66  54 CALM      30.21F
FRANKLIN*      SUNNY     81  68  64 SE6       30.22F
NEW CASTLE     FAIR      84  67  56 VRB7      30.19F
BEAVER COUNTY  SUNNY     84  63  48 E5        30.20S
BUTLER*        SUNNY     83  67  58 NE8       30.19F
PITTSBURGH INT MOSUNNY   83  61  47 VRB5      30.19S
PITTSBURGH     SUNNY     81  61  50 E6        30.18F
INDIANA*       SUNNY     81  64  57 E9        30.22F
LATROBE        SUNNY     79  64  61 VRB5      30.20S
WASHINGTON CO* SUNNY     82  63  51 NE5       30.19F
$$

PAZ004>006-010>012-017>019-024>028-033>037-041-042-045-046-049>053-241700-
CENTRAL PENNSYLVANIA

CITY           SKY/WX    TMP DP  RH WIND       PRES   REMARKS
BRADFORD       SUNNY     81  64  56 NE9       30.24F
DUBOIS         SUNNY     82  64  54 E8        30.21S
CLEARFIELD     SUNNY     83  66  56 E5        30.21S
JOHNSTOWN      SUNNY     79  62  56 NE7       30.23F
ALTOONA        SUNNY     82  65  56 VRB5      30.20F
STATE COLLEGE  SUNNY     81  66  61 CALM      30.19S
WILLIAMSPORT   SUNNY     84  67  56 W7        30.13F
SELINSGROVE    SUNNY     81  69  67 CALM      30.14F
FT INDIANTOWN  SUNNY     85  67  55 CALM      30.11F
CAPITAL CITY   SUNNY     85  64  49 N7        30.11F
HARRISBURG     SUNNY     83  67  58 W8        30.10F
YORK           SUNNY     83  67  58 N8        30.12F
$$

PAZ038>040-043-044-047-048-054-055-060>062-067>071-241700-
EASTERN PENNSYLVANIA

CITY           SKY/WX    TMP DP  RH WIND       PRES   REMARKS
SCRANTON       SUNNY     80  65  59 W3        30.15F
MOUNT POCONO   SUNNY     81  64  56 E9        30.18S
ALLENTOWN      SUNNY     86  66  51 E6        30.10S
QUAKERTOWN*    SUNNY     82  66  57 N7        30.12S
READING        SUNNY     85  69  58 N7        30.09F
LANCASTER      SUNNY     85  67  54 VRB5      30.10F
COATESVILLE    SUNNY     82  64  54 VRB5G12   30.12F
POTTSTOWN      SUNNY     83  66  56 NE9       30.11F
BLUE BELL      SUNNY     82  66  57 CALM      30.10F
DOYLESTOWN     SUNNY     85  66  53 VRB3      30.09F
WILLOW GROVE   NOT AVBL
NORTH PHILA    SUNNY     87  65  47 VRB5      30.09F
PHILADELPHIA   SUNNY     86  65  49 E9        30.08F
$$



USA.gov is the U.S. government's official web portal to all federal, state and local government web resources and services.